N216TB KMSY-KPNS

Flight info

Callsign N216TB
Flight time 0h 59m
Altitude 5000
Route DCT GPT DCT SJI DCT LOXLY DCT PENSI DCT WABEN DCT BRENT DCT
Aircraft B58/L-L/C

Departure

Time 2026-04-22 17:14
Airport Louis Armstrong New Orleans International Airport (KMSY)

Arrival

Time 2026-04-22 18:13
Airport Pensacola International Airport (KPNS)
Time Latitude Longitude Altitude Speed Heading
2026-04-22 17:05 29.99181 -90.27193 5 ft 0 kts 16°
2026-04-22 17:12 29.99209 -90.27170 5 ft 14 kts 57°
2026-04-22 17:12 29.99279 -90.27128 7 ft 12 kts 343°
2026-04-22 17:12 29.99321 -90.27127 8 ft 0 kts 21°
2026-04-22 17:13 29.99333 -90.27122 8 ft 14 kts 20°
2026-04-22 17:13 29.99381 -90.27010 8 ft 37 kts 110°
2026-04-22 17:13 29.99275 -90.26368 95 ft 116 kts 98°
2026-04-22 17:13 29.99158 -90.25331 511 ft 143 kts 98°
2026-04-22 17:14 29.99128 -90.24086 725 ft 165 kts 80°
2026-04-22 17:14 29.99368 -90.22754 1052 ft 174 kts 88°
2026-04-22 17:14 29.99745 -90.21397 1344 ft 183 kts 66°
2026-04-22 17:14 30.00379 -90.20117 1633 ft 184 kts 61°
2026-04-22 17:15 30.00955 -90.19401 1893 ft 184 kts 47°
2026-04-22 17:15 30.02084 -90.18007 2522 ft 173 kts 64°
2026-04-22 17:15 30.02584 -90.16780 2916 ft 171 kts 73°
2026-04-22 17:15 30.03023 -90.15508 3331 ft 170 kts 73°
2026-04-22 17:16 30.03471 -90.14238 3754 ft 171 kts 72°
2026-04-22 17:16 30.03921 -90.12965 4155 ft 172 kts 72°
2026-04-22 17:16 30.04372 -90.11690 4564 ft 172 kts 72°
2026-04-22 17:16 30.04827 -90.10408 4970 ft 174 kts 73°
2026-04-22 17:17 30.05303 -90.09050 5009 ft 189 kts 72°
2026-04-22 17:17 30.05809 -90.07612 5019 ft 196 kts 72°
2026-04-22 17:17 30.06328 -90.06152 5018 ft 196 kts 72°
2026-04-22 17:17 30.06844 -90.04698 5017 ft 195 kts 72°
2026-04-22 17:18 30.07350 -90.03265 5015 ft 195 kts 72°
2026-04-22 17:18 30.07863 -90.01815 5013 ft 194 kts 72°
2026-04-22 17:18 30.08373 -90.00371 5017 ft 194 kts 72°
2026-04-22 17:18 30.08884 -89.98926 5012 ft 195 kts 72°
2026-04-22 17:19 30.09903 -89.96036 5011 ft 195 kts 72°
2026-04-22 17:19 30.10924 -89.93140 5013 ft 195 kts 72°
2026-04-22 17:20 30.11938 -89.90263 5009 ft 194 kts 72°
2026-04-22 17:20 30.12955 -89.87377 5016 ft 194 kts 72°
2026-04-22 17:21 30.13461 -89.85935 5013 ft 194 kts 72°
2026-04-22 17:21 30.14479 -89.83038 5010 ft 194 kts 73°
2026-04-22 17:22 30.15497 -89.80140 5013 ft 195 kts 72°
2026-04-22 17:22 30.16007 -89.78689 5009 ft 195 kts 72°
2026-04-22 17:22 30.17020 -89.75804 5009 ft 195 kts 72°
2026-04-22 17:23 30.17528 -89.74355 5011 ft 194 kts 73°
2026-04-22 17:23 30.18548 -89.71446 5013 ft 196 kts 72°
2026-04-22 17:23 30.19059 -89.69983 5012 ft 197 kts 72°
2026-04-22 17:24 30.19574 -89.68513 5013 ft 197 kts 72°
2026-04-22 17:24 30.20083 -89.67048 5004 ft 196 kts 72°
2026-04-22 17:24 30.20589 -89.65602 5008 ft 197 kts 73°
2026-04-22 17:24 30.21103 -89.64138 5002 ft 197 kts 73°
2026-04-22 17:25 30.21617 -89.62672 5007 ft 196 kts 72°
2026-04-22 17:25 30.22130 -89.61208 5008 ft 197 kts 72°
2026-04-22 17:25 30.22641 -89.59742 5017 ft 198 kts 72°
2026-04-22 17:25 30.23156 -89.58264 5022 ft 198 kts 72°
2026-04-22 17:26 30.23669 -89.56778 5009 ft 197 kts 72°
2026-04-22 17:26 30.24185 -89.55314 5015 ft 197 kts 71°
2026-04-22 17:26 30.24691 -89.53865 5013 ft 196 kts 72°
2026-04-22 17:26 30.25200 -89.52402 5008 ft 196 kts 72°
2026-04-22 17:27 30.25707 -89.50944 5014 ft 195 kts 73°
2026-04-22 17:27 30.26213 -89.49494 5011 ft 194 kts 73°
2026-04-22 17:27 30.26714 -89.48043 5009 ft 195 kts 72°
2026-04-22 17:27 30.27219 -89.46592 5015 ft 195 kts 72°
2026-04-22 17:28 30.27727 -89.45135 5012 ft 195 kts 72°
2026-04-22 17:28 30.28235 -89.43681 5013 ft 195 kts 72°
2026-04-22 17:28 30.28734 -89.42242 5012 ft 196 kts 73°
2026-04-22 17:28 30.29242 -89.40773 5013 ft 197 kts 72°
2026-04-22 17:29 30.29752 -89.39303 5014 ft 197 kts 73°
2026-04-22 17:29 30.30262 -89.37834 5016 ft 197 kts 72°
2026-04-22 17:29 30.30775 -89.36362 5015 ft 197 kts 72°
2026-04-22 17:29 30.31282 -89.34897 5010 ft 196 kts 73°
2026-04-22 17:30 30.31790 -89.33429 5014 ft 196 kts 72°
2026-04-22 17:30 30.32298 -89.31964 5013 ft 196 kts 72°
2026-04-22 17:30 30.32796 -89.30526 5012 ft 195 kts 73°
2026-04-22 17:30 30.33300 -89.29070 5010 ft 195 kts 72°
2026-04-22 17:31 30.33805 -89.27613 5013 ft 195 kts 72°
2026-04-22 17:31 30.34309 -89.26149 5012 ft 197 kts 73°
2026-04-22 17:31 30.34818 -89.24677 5019 ft 197 kts 72°
2026-04-22 17:31 30.35326 -89.23208 5023 ft 196 kts 73°
2026-04-22 17:32 30.35831 -89.21743 5022 ft 196 kts 72°
2026-04-22 17:32 30.36339 -89.20277 5024 ft 197 kts 73°
2026-04-22 17:32 30.36850 -89.18799 5026 ft 198 kts 72°
2026-04-22 17:32 30.37356 -89.17318 5024 ft 197 kts 73°
2026-04-22 17:33 30.37694 -89.16340 5024 ft 198 kts 72°
2026-04-22 17:33 30.38368 -89.14390 5021 ft 197 kts 72°
2026-04-22 17:33 30.38873 -89.12920 5024 ft 196 kts 73°
2026-04-22 17:33 30.39380 -89.11449 5024 ft 196 kts 72°
2026-04-22 17:34 30.39892 -89.09973 5023 ft 198 kts 72°
2026-04-22 17:34 30.40397 -89.08492 5026 ft 198 kts 72°
2026-04-22 17:34 30.40952 -89.07035 5020 ft 199 kts 67°
2026-04-22 17:34 30.41602 -89.05624 5024 ft 199 kts 66°
2026-04-22 17:35 30.42232 -89.04224 5022 ft 199 kts 67°
2026-04-22 17:35 30.42868 -89.02796 5023 ft 200 kts 67°
2026-04-22 17:35 30.43507 -89.01371 5025 ft 200 kts 66°
2026-04-22 17:35 30.44150 -88.99935 5024 ft 201 kts 67°
2026-04-22 17:36 30.44792 -88.98505 4992 ft 200 kts 67°
2026-04-22 17:36 30.45431 -88.97082 4994 ft 199 kts 68°
2026-04-22 17:36 30.46069 -88.95657 4993 ft 199 kts 67°
2026-04-22 17:36 30.46703 -88.94233 4991 ft 198 kts 67°
2026-04-22 17:37 30.47330 -88.92834 4992 ft 198 kts 67°
2026-04-22 17:37 30.47963 -88.91421 4993 ft 198 kts 67°
2026-04-22 17:37 30.48597 -88.90005 4992 ft 197 kts 68°
2026-04-22 17:37 30.49226 -88.88595 4996 ft 197 kts 67°
2026-04-22 17:38 30.49859 -88.87174 5004 ft 199 kts 68°
2026-04-22 17:38 30.50495 -88.85749 5003 ft 199 kts 68°
2026-04-22 17:38 30.51133 -88.84319 5004 ft 199 kts 68°
2026-04-22 17:38 30.51774 -88.82887 5000 ft 200 kts 67°
2026-04-22 17:39 30.52413 -88.81455 5009 ft 201 kts 66°
2026-04-22 17:39 30.53052 -88.80020 4998 ft 199 kts 68°
2026-04-22 17:39 30.54310 -88.77192 4998 ft 199 kts 67°
2026-04-22 17:40 30.54948 -88.75776 5001 ft 198 kts 67°
2026-04-22 17:40 30.55577 -88.74355 5027 ft 198 kts 68°
2026-04-22 17:40 30.56210 -88.72933 5032 ft 198 kts 67°
2026-04-22 17:40 30.56841 -88.71500 5021 ft 198 kts 68°
2026-04-22 17:41 30.57475 -88.70088 5021 ft 197 kts 68°
2026-04-22 17:41 30.58095 -88.68690 5024 ft 198 kts 68°
2026-04-22 17:41 30.58726 -88.67269 5021 ft 198 kts 67°
2026-04-22 17:41 30.59356 -88.65853 5024 ft 198 kts 67°
2026-04-22 17:42 30.59987 -88.64432 5022 ft 198 kts 67°
2026-04-22 17:42 30.60618 -88.63013 5024 ft 198 kts 68°
2026-04-22 17:42 30.61245 -88.61592 5019 ft 198 kts 67°
2026-04-22 17:42 30.61876 -88.60173 5019 ft 198 kts 67°
2026-04-22 17:43 30.62503 -88.58761 5020 ft 196 kts 68°
2026-04-22 17:43 30.63127 -88.57353 5022 ft 196 kts 67°
2026-04-22 17:43 30.63742 -88.55967 5022 ft 196 kts 68°
2026-04-22 17:43 30.64366 -88.54558 5025 ft 196 kts 67°
2026-04-22 17:44 30.64988 -88.53150 5022 ft 196 kts 67°
2026-04-22 17:44 30.65608 -88.51745 5033 ft 196 kts 67°
2026-04-22 17:44 30.66237 -88.50324 5029 ft 197 kts 67°
2026-04-22 17:44 30.66862 -88.48910 5025 ft 197 kts 67°
2026-04-22 17:45 30.67489 -88.47494 5036 ft 197 kts 67°
2026-04-22 17:45 30.68116 -88.46081 5038 ft 197 kts 68°
2026-04-22 17:45 30.68732 -88.44681 5037 ft 197 kts 67°
2026-04-22 17:45 30.69366 -88.43248 5045 ft 197 kts 67°
2026-04-22 17:46 30.69985 -88.41848 5037 ft 197 kts 67°
2026-04-22 17:46 30.70610 -88.40430 5045 ft 197 kts 68°
2026-04-22 17:46 30.71238 -88.39005 5042 ft 198 kts 67°
2026-04-22 17:46 30.71861 -88.37584 5041 ft 197 kts 67°
2026-04-22 17:47 30.72460 -88.36150 5048 ft 196 kts 75°
2026-04-22 17:47 30.72681 -88.34599 5039 ft 194 kts 91°
2026-04-22 17:47 30.72770 -88.33049 5043 ft 191 kts 89°
2026-04-22 17:47 30.72885 -88.31511 5042 ft 191 kts 90°
2026-04-22 17:48 30.72954 -88.30493 5043 ft 191 kts 90°
2026-04-22 17:48 30.73089 -88.28440 5053 ft 191 kts 90°
2026-04-22 17:48 30.73189 -88.26916 5051 ft 193 kts 90°
2026-04-22 17:48 30.73284 -88.25368 5052 ft 192 kts 90°
2026-04-22 17:49 30.73387 -88.23817 5053 ft 192 kts 91°
2026-04-22 17:49 30.73491 -88.22266 5046 ft 193 kts 89°
2026-04-22 17:49 30.73588 -88.20710 5050 ft 194 kts 90°
2026-04-22 17:49 30.73690 -88.19149 5038 ft 192 kts 90°
2026-04-22 17:50 30.73793 -88.17603 5046 ft 192 kts 90°
2026-04-22 17:50 30.73894 -88.16057 5038 ft 191 kts 90°
2026-04-22 17:50 30.73992 -88.14534 5037 ft 191 kts 90°
2026-04-22 17:50 30.74089 -88.12997 5031 ft 192 kts 90°
2026-04-22 17:51 30.74187 -88.11449 5036 ft 192 kts 90°
2026-04-22 17:51 30.74288 -88.09893 5054 ft 194 kts 89°
2026-04-22 17:51 30.74388 -88.08340 5047 ft 192 kts 90°
2026-04-22 17:51 30.74485 -88.06791 5054 ft 193 kts 89°
2026-04-22 17:52 30.74586 -88.05240 5053 ft 192 kts 90°
2026-04-22 17:52 30.74687 -88.03695 5051 ft 191 kts 90°
2026-04-22 17:52 30.74783 -88.02173 5050 ft 191 kts 90°
2026-04-22 17:52 30.74879 -88.00635 5047 ft 191 kts 90°
2026-04-22 17:53 30.74976 -87.99089 5048 ft 191 kts 90°
2026-04-22 17:53 30.75074 -87.97546 5051 ft 192 kts 90°
2026-04-22 17:53 30.75171 -87.96003 5046 ft 191 kts 90°
2026-04-22 17:53 30.75271 -87.94466 5043 ft 190 kts 89°
2026-04-22 17:54 30.75368 -87.92933 5045 ft 190 kts 90°
2026-04-22 17:54 30.75464 -87.91392 5044 ft 192 kts 90°
2026-04-22 17:54 30.75557 -87.89850 5055 ft 191 kts 90°
2026-04-22 17:54 30.75654 -87.88296 5049 ft 192 kts 90°
2026-04-22 17:55 30.75719 -87.87269 5046 ft 192 kts 90°
2026-04-22 17:55 30.75849 -87.85218 5046 ft 192 kts 90°
2026-04-22 17:55 30.75945 -87.83673 5037 ft 191 kts 90°
2026-04-22 17:55 30.76039 -87.82137 5041 ft 191 kts 90°
2026-04-22 17:56 30.76134 -87.80598 5040 ft 191 kts 90°
2026-04-22 17:56 30.76230 -87.79061 5047 ft 191 kts 89°
2026-04-22 17:56 30.76328 -87.77511 5040 ft 193 kts 90°
2026-04-22 17:56 30.76419 -87.75964 5042 ft 191 kts 89°
2026-04-22 17:57 30.76514 -87.74423 5040 ft 191 kts 89°
2026-04-22 17:57 30.76607 -87.72905 5049 ft 192 kts 90°
2026-04-22 17:57 30.76702 -87.71361 5036 ft 192 kts 90°
2026-04-22 17:57 30.76799 -87.69812 5040 ft 193 kts 90°
2026-04-22 17:58 30.76892 -87.68249 5034 ft 193 kts 90°
2026-04-22 17:58 30.76988 -87.66689 5042 ft 193 kts 90°
2026-04-22 17:58 30.77083 -87.65127 5035 ft 194 kts 89°
2026-04-22 17:58 30.77176 -87.63567 5039 ft 193 kts 90°
2026-04-22 17:59 30.77271 -87.62032 5043 ft 193 kts 90°
2026-04-22 17:59 30.77366 -87.60468 5043 ft 195 kts 90°
2026-04-22 17:59 30.77460 -87.58899 5031 ft 193 kts 90°
2026-04-22 17:59 30.77553 -87.57352 5029 ft 192 kts 90°
2026-04-22 18:00 30.77616 -87.56305 5025 ft 192 kts 91°
2026-04-22 18:00 30.77739 -87.54260 5030 ft 191 kts 90°
2026-04-22 18:00 30.77829 -87.52714 5030 ft 192 kts 90°
2026-04-22 18:00 30.77923 -87.51163 5034 ft 193 kts 90°
2026-04-22 18:01 30.78020 -87.49610 5040 ft 193 kts 90°
2026-04-22 18:01 30.78107 -87.48055 5030 ft 192 kts 90°
2026-04-22 18:01 30.78192 -87.46531 5031 ft 191 kts 91°
2026-04-22 18:01 30.78290 -87.44988 5026 ft 191 kts 90°
2026-04-22 18:02 30.78383 -87.43445 5028 ft 191 kts 91°
2026-04-22 18:02 30.78471 -87.41906 5023 ft 190 kts 89°
2026-04-22 18:02 30.78562 -87.40373 5026 ft 190 kts 90°
2026-04-22 18:02 30.78652 -87.38841 5024 ft 190 kts 90°
2026-04-22 18:03 30.78741 -87.37304 5031 ft 191 kts 90°
2026-04-22 18:03 30.78833 -87.35760 5034 ft 192 kts 90°
2026-04-22 18:03 30.78923 -87.34219 5029 ft 191 kts 90°
2026-04-22 18:03 30.79013 -87.32679 5036 ft 192 kts 90°
2026-04-22 18:04 30.79084 -87.31142 5017 ft 191 kts 95°
2026-04-22 18:04 30.78839 -87.29656 5027 ft 186 kts 112°
2026-04-22 18:04 30.78238 -87.28336 5024 ft 184 kts 128°
2026-04-22 18:04 30.77336 -87.27282 5030 ft 185 kts 143°
2026-04-22 18:05 30.76201 -87.26574 5024 ft 186 kts 160°
2026-04-22 18:05 30.74931 -87.26292 4919 ft 190 kts 176°
2026-04-22 18:05 30.73585 -87.26239 4686 ft 194 kts 178°
2026-04-22 18:05 30.72285 -87.26207 4755 ft 186 kts 177°
2026-04-22 18:06 30.70998 -87.26230 4781 ft 185 kts 180°
2026-04-22 18:06 30.69701 -87.26333 4731 ft 188 kts 182°
2026-04-22 18:06 30.68405 -87.26451 4742 ft 185 kts 182°
2026-04-22 18:06 30.67169 -87.26418 4662 ft 170 kts 171°
2026-04-22 18:07 30.66415 -87.26190 4337 ft 169 kts 158°
2026-04-22 18:07 30.65016 -87.25393 3355 ft 168 kts 154°
2026-04-22 18:07 30.64047 -87.24811 3129 ft 145 kts 153°
2026-04-22 18:07 30.63190 -87.24277 2926 ft 135 kts 152°
2026-04-22 18:08 30.62401 -87.23791 2837 ft 127 kts 152°
2026-04-22 18:08 30.61651 -87.23301 2752 ft 124 kts 152°
2026-04-22 18:08 30.60874 -87.22811 2562 ft 127 kts 152°
2026-04-22 18:08 30.60083 -87.22324 2416 ft 140 kts 153°
2026-04-22 18:09 30.59190 -87.21869 2449 ft 134 kts 165°
2026-04-22 18:09 30.58288 -87.21635 2348 ft 143 kts 171°
2026-04-22 18:09 30.57324 -87.21460 2359 ft 131 kts 168°
2026-04-22 18:09 30.56445 -87.21239 2053 ft 132 kts 166°
2026-04-22 18:10 30.55599 -87.21000 1902 ft 117 kts 165°
2026-04-22 18:10 30.54814 -87.20808 1626 ft 114 kts 165°
2026-04-22 18:10 30.54058 -87.20606 1380 ft 109 kts 164°
2026-04-22 18:10 30.53338 -87.20387 1266 ft 104 kts 162°
2026-04-22 18:11 30.52612 -87.20184 1063 ft 112 kts 169°
2026-04-22 18:11 30.51846 -87.20034 877 ft 106 kts 167°
2026-04-22 18:11 30.51148 -87.19816 749 ft 103 kts 163°
2026-04-22 18:11 30.50423 -87.19644 647 ft 105 kts 169°
2026-04-22 18:12 30.49817 -87.19513 436 ft 78 kts 159°
2026-04-22 18:12 30.49342 -87.19345 284 ft 73 kts 164°
2026-04-22 18:12 30.48971 -87.19241 299 ft 88 kts 171°
2026-04-22 18:12 30.48176 -87.19035 150 ft 75 kts 166°
2026-04-22 18:13 30.47760 -87.18919 114 ft 53 kts 167°
2026-04-22 18:13 30.47445 -87.18841 107 ft 37 kts 164°
2026-04-22 18:13 30.47256 -87.18790 107 ft 17 kts 171°
2026-04-22 18:13 30.47189 -87.18768 106 ft 8 kts 137°
2026-04-22 18:14 30.47182 -87.18722 107 ft 5 kts 81°
2026-04-22 18:14 30.47187 -87.18685 107 ft 4 kts 82°
2026-04-22 18:14 30.47197 -87.18640 108 ft 7 kts 77°
2026-04-22 18:14 30.47205 -87.18597 109 ft 4 kts 76°
2026-04-22 18:15 30.47216 -87.18533 111 ft 10 kts 79°
2026-04-22 18:15 30.47215 -87.18477 112 ft 5 kts 141°
2026-04-22 18:15 30.47160 -87.18459 112 ft 9 kts 169°
2026-04-22 18:15 30.47077 -87.18436 110 ft 11 kts 166°
2026-04-22 18:16 30.47021 -87.18422 109 ft 6 kts 169°
2026-04-22 18:16 30.46977 -87.18411 109 ft 6 kts 156°
2026-04-22 18:16 30.46969 -87.18354 109 ft 10 kts 72°
2026-04-22 18:16 30.46982 -87.18288 110 ft 7 kts 80°
2026-04-22 18:17 30.46992 -87.18242 111 ft 5 kts 87°
2026-04-22 18:17 30.46972 -87.18213 110 ft 4 kts 196°
2026-04-22 18:17 30.46962 -87.18224 110 ft 4 kts 236°
2026-04-22 18:17 30.46957 -87.18241 110 ft 6 kts 262°
2026-04-22 18:18 30.46957 -87.18244 110 ft 0 kts 263°